Time,TemperatureF,DewpointF,PressureIn,WindDirection,WindDirectionDegrees,WindSpeedMPH,WindSpeedGustMPH,Humidity,HourlyPrecipIn,Conditions,Clouds,dailyrainin,SoftwareType,DateUTC
2013-07-30 00:00:00,49.0,44.0,-100.00,West,268,3.0,3.0,82,0.00,,,-99.99,,2013-07-30 07:00:00,
2013-07-30 01:00:00,50.0,42.0,-100.00,West,277,3.0,3.0,73,0.00,,,-99.99,,2013-07-30 08:00:00,
2013-07-30 02:00:00,51.0,35.0,-100.00,West,279,3.0,5.0,55,0.00,,,-99.99,,2013-07-30 09:00:00,
2013-07-30 03:00:00,52.0,45.0,-100.00,West,267,3.0,5.0,76,0.00,,,-99.99,,2013-07-30 10:00:00,
2013-07-30 05:00:00,49.0,37.0,-100.00,North,4,5.0,6.0,63,0.00,,,-99.99,,2013-07-30 12:00:00,
2013-07-30 06:00:00,50.0,35.0,-100.00,East,101,6.0,7.0,57,0.00,,,-99.99,,2013-07-30 13:00:00,
2013-07-30 07:00:00,53.0,39.0,-100.00,ESE,104,6.0,7.0,58,0.00,,,-99.99,,2013-07-30 14:00:00,
2013-07-30 08:00:00,56.0,40.0,-100.00,ESE,103,6.0,7.0,55,0.00,,,-99.99,,2013-07-30 15:00:00,
2013-07-30 09:00:00,60.0,41.0,-100.00,East,95,5.0,6.0,49,0.00,,,-99.99,,2013-07-30 16:00:00,
2013-07-30 10:00:00,62.0,40.0,-100.00,East,94,3.0,5.0,45,0.00,,,-99.99,,2013-07-30 17:00:00,
2013-07-30 11:00:00,64.0,44.0,-100.00,East,86,2.0,3.0,48,0.00,,,-99.99,,2013-07-30 18:00:00,
2013-07-30 12:00:00,67.0,42.0,-100.00,North,0,0.0,2.0,40,0.00,,,-99.99,,2013-07-30 19:00:00,
2013-07-30 13:00:00,66.0,48.0,-100.00,North,0,0.0,2.0,52,0.00,,,-99.99,,2013-07-30 20:00:00,
2013-07-30 14:00:00,62.0,48.0,-100.00,North,0,0.0,1.0,61,0.00,,,-99.99,,2013-07-30 21:00:00,
2013-07-30 15:00:00,65.0,49.0,-100.00,North,-999,0.0,0.0,56,0.00,,,-99.99,,2013-07-30 22:00:00,
2013-07-30 15:53:00,65.0,49.0,-100.00,North,-999,0.0,0.0,56,0.00,,,-99.99,,2013-07-30 22:53:00,
2013-07-30 16:00:00,66.0,50.0,-100.00,North,-999,0.0,0.0,56,0.00,,,-99.99,,2013-07-30 23:00:00,
2013-07-30 16:53:00,66.0,50.0,-100.00,North,-999,0.0,0.0,56,0.00,,,-99.99,,2013-07-30 23:53:00,
2013-07-30 17:00:00,66.0,52.0,-100.00,North,0,0.0,3.0,61,0.00,,,-99.99,,2013-07-31 00:00:00,
2013-07-30 18:00:00,64.0,51.0,-100.00,North,-999,0.0,0.0,63,0.00,,,-99.99,,2013-07-31 01:00:00,
2013-07-30 19:00:00,60.0,52.0,-100.00,North,-999,0.0,0.0,74,0.00,,,-99.99,,2013-07-31 02:00:00,
2013-07-30 20:00:00,58.0,52.0,-100.00,North,0,0.0,1.0,80,0.00,,,-99.99,,2013-07-31 03:00:00,
2013-07-30 21:00:00,55.0,51.0,-100.00,North,-999,0.0,0.0,85,0.00,,,-99.99,,2013-07-31 04:00:00,
2013-07-30 21:52:00,55.0,51.0,-100.00,North,-999,0.0,0.0,85,0.00,,,-99.99,,2013-07-31 04:52:00,
2013-07-30 22:00:00,54.0,50.0,-100.00,North,0,0.0,1.0,87,0.00,,,-99.99,,2013-07-31 05:00:00,
2013-07-30 23:00:00,54.0,49.0,-100.00,NW,323,1.0,2.0,83,0.00,,,-99.99,,2013-07-31 06:00:00,